Year,Month,Day,Hour,Minute,Value (Times are PST for temperature in C)
2018,08,21,11,19,25.60
2018,08,21,11,20,25.60
2018,08,21,11,21,25.60
2018,08,21,11,22,25.60
2018,08,21,11,23,25.60
2018,08,21,11,24,25.60
2018,08,21,11,25,25.60
2018,08,21,11,26,25.70
2018,08,21,11,27,25.60
2018,08,21,11,28,25.60
2018,08,21,11,29,25.60
2018,08,21,11,30,25.60
2018,08,21,11,31,25.60
2018,08,21,11,32,25.60
2018,08,21,11,33,25.60
2018,08,21,11,34,25.60
2018,08,21,11,35,25.60
2018,08,21,11,36,25.60
2018,08,21,11,37,25.60
2018,08,21,11,38,25.60
2018,08,21,11,39,25.70
2018,08,21,11,40,25.70
2018,08,21,11,41,25.80
2018,08,21,11,42,25.90
2018,08,21,11,43,26.00
2018,08,21,11,44,26.00
2018,08,21,11,45,26.00
2018,08,21,11,46,26.00
2018,08,21,11,47,26.00
2018,08,21,11,48,26.10
2018,08,21,11,49,26.10
2018,08,21,11,50,26.10
2018,08,21,11,51,26.10
2018,08,21,11,52,26.10
2018,08,21,11,53,26.10
2018,08,21,11,54,26.10
2018,08,21,11,55,26.20
2018,08,21,11,56,26.10
2018,08,21,11,57,26.10
2018,08,21,11,58,26.10
2018,08,21,11,59,26.10
2018,08,21,12,00,26.20
2018,08,21,12,01,26.20
2018,08,21,12,02,26.30
2018,08,21,12,03,26.30
2018,08,21,12,04,26.40
2018,08,21,12,05,26.50
2018,08,21,12,06,26.60
2018,08,21,12,07,26.60
2018,08,21,12,08,26.60
2018,08,21,12,09,26.60
2018,08,21,12,10,26.60
2018,08,21,12,11,26.60
2018,08,21,12,12,26.60
2018,08,21,12,13,26.60
2018,08,21,12,14,26.60
2018,08,21,12,15,26.60
2018,08,21,12,16,26.60
2018,08,21,12,17,26.60
2018,08,21,12,18,26.60
2018,08,21,12,19,26.60
2018,08,21,12,20,26.60
2018,08,21,12,21,26.70
2018,08,21,12,22,26.80
2018,08,21,12,23,26.80
2018,08,21,12,24,26.80
2018,08,21,12,25,26.90
2018,08,21,12,26,26.90
2018,08,21,12,27,26.90
2018,08,21,12,28,26.90
2018,08,21,12,29,26.90
2018,08,21,12,30,27.00
2018,08,21,12,31,27.10
2018,08,21,12,32,27.10
2018,08,21,12,33,27.10
2018,08,21,12,34,27.10
2018,08,21,12,35,26.90
2018,08,21,12,36,26.80
2018,08,21,12,37,26.60
2018,08,21,12,38,26.60
2018,08,21,12,39,26.60
2018,08,21,12,40,26.60
2018,08,21,12,41,26.60
2018,08,21,12,42,26.60
2018,08,21,12,43,26.60
2018,08,21,12,44,26.60
2018,08,21,12,45,26.60
2018,08,21,12,46,26.70
2018,08,21,12,47,26.80
2018,08,21,12,48,26.90
2018,08,21,12,49,27.00
2018,08,21,12,50,27.10
2018,08,21,12,51,27.30
2018,08,21,12,52,27.40
2018,08,21,12,53,27.50
2018,08,21,12,54,27.60
2018,08,21,12,55,27.70
2018,08,21,12,56,27.70
2018,08,21,12,57,27.80
2018,08,21,12,58,27.80
2018,08,21,12,59,27.90
2018,08,21,13,00,27.90
2018,08,21,13,01,28.00
2018,08,21,13,02,28.00
2018,08,21,13,03,28.10
2018,08,21,13,04,28.10
2018,08,21,13,05,28.00
2018,08,21,13,06,28.00
2018,08,21,13,07,27.90
2018,08,21,13,08,27.90
2018,08,21,13,09,27.80
2018,08,21,13,10,27.80
2018,08,21,13,11,27.80
2018,08,21,13,12,27.80
2018,08,21,13,13,27.80
2018,08,21,13,14,27.80
2018,08,21,13,15,27.80
2018,08,21,13,16,27.90
2018,08,21,13,17,28.00
2018,08,21,13,18,28.10
2018,08,21,13,19,28.20
2018,08,21,13,20,28.20
2018,08,21,13,21,28.30
2018,08,21,13,22,28.30
2018,08,21,13,23,28.30
2018,08,21,13,24,28.40
2018,08,21,13,25,28.40
2018,08,21,13,26,28.50
2018,08,21,13,27,28.60
2018,08,21,13,28,28.60
2018,08,21,13,29,28.70
2018,08,21,13,30,28.70
2018,08,21,13,31,28.80
2018,08,21,13,32,28.80
2018,08,21,13,33,28.80
2018,08,21,13,34,28.80
2018,08,21,13,35,28.80
2018,08,21,13,36,28.80
2018,08,21,13,37,28.80
2018,08,21,13,38,28.80
2018,08,21,13,39,28.80
2018,08,21,13,40,28.80
2018,08,21,13,41,28.90
2018,08,21,13,42,28.90
2018,08,21,13,43,28.90
2018,08,21,13,44,29.00
2018,08,21,13,45,29.10
2018,08,21,13,46,29.10
2018,08,21,13,47,29.20
2018,08,21,13,48,29.20
2018,08,21,13,49,29.20
2018,08,21,13,50,29.30
2018,08,21,13,51,29.30
2018,08,21,13,52,29.30
2018,08,21,13,53,29.40
2018,08,21,13,54,29.40
2018,08,21,13,55,29.30
2018,08,21,13,56,29.20
2018,08,21,13,57,29.20
2018,08,21,13,58,29.20
2018,08,21,13,59,29.30
2018,08,21,14,00,29.30
2018,08,21,14,01,29.40
2018,08,21,14,02,29.40
2018,08,21,14,03,29.40
2018,08,21,14,04,29.40
2018,08,21,14,05,29.30
2018,08,21,14,06,29.30
2018,08,21,14,07,29.30
2018,08,21,14,08,29.30
2018,08,21,14,09,29.30
2018,08,21,14,10,29.30
2018,08,21,14,11,29.30
2018,08,21,14,12,29.30
2018,08,21,14,13,29.30
2018,08,21,14,14,29.30
2018,08,21,14,15,29.30
2018,08,21,14,16,29.30
2018,08,21,14,17,29.30
2018,08,21,14,18,29.30
2018,08,21,14,19,29.40
2018,08,21,14,20,29.40
2018,08,21,14,21,29.50
2018,08,21,14,22,29.60
2018,08,21,14,23,29.50
2018,08,21,14,24,29.60
2018,08,21,14,25,29.70
2018,08,21,14,26,29.70
2018,08,21,14,27,29.80
2018,08,21,14,28,29.90
2018,08,21,14,29,29.90
2018,08,21,14,30,29.80
2018,08,21,14,31,29.90
2018,08,21,14,32,29.90
2018,08,21,14,33,29.90
2018,08,21,14,34,30.10
2018,08,21,14,35,30.10
2018,08,21,14,36,30.20
2018,08,21,14,37,30.20
2018,08,21,14,38,30.10
2018,08,21,14,39,30.10
2018,08,21,14,40,30.10
2018,08,21,14,41,30.10
2018,08,21,14,42,30.10
2018,08,21,14,43,30.20
2018,08,21,14,44,30.20
2018,08,21,14,45,30.30
2018,08,21,14,46,30.30
2018,08,21,14,47,30.30
2018,08,21,14,48,30.30
2018,08,21,14,49,30.40
2018,08,21,14,50,30.40
2018,08,21,14,51,30.40
2018,08,21,14,52,30.40
2018,08,21,14,53,30.40
2018,08,21,14,54,30.40
2018,08,21,14,55,30.50
2018,08,21,14,56,30.60
2018,08,21,14,57,30.60
2018,08,21,14,58,30.60
2018,08,21,14,59,30.60
2018,08,21,15,00,30.60
2018,08,21,15,01,30.60
2018,08,21,15,02,30.60
2018,08,21,15,03,30.60
2018,08,21,15,04,30.60
2018,08,21,15,05,30.60
2018,08,21,15,06,30.60
2018,08,21,15,07,30.60
2018,08,21,15,08,30.60
2018,08,21,15,09,30.60
2018,08,21,15,10,30.60
2018,08,21,15,11,30.70
2018,08,21,15,12,30.70
2018,08,21,15,13,30.70
2018,08,21,15,14,30.80
2018,08,21,15,15,30.80
2018,08,21,15,16,30.90
2018,08,21,15,17,30.90
2018,08,21,15,18,30.90
2018,08,21,15,19,30.90
2018,08,21,15,20,30.80
2018,08,21,15,21,30.80
2018,08,21,15,22,30.80
2018,08,21,15,23,30.80
2018,08,21,15,24,30.80
2018,08,21,15,25,30.80
2018,08,21,15,26,30.90
2018,08,21,15,27,30.90
2018,08,21,15,28,30.90
2018,08,21,15,29,30.90
2018,08,21,15,30,30.90
2018,08,21,15,31,30.90
2018,08,21,15,32,30.90
2018,08,21,15,33,30.90
2018,08,21,15,34,30.90
2018,08,21,15,35,30.90
2018,08,21,15,36,30.90
2018,08,21,15,37,30.90
2018,08,21,15,38,30.90
2018,08,21,15,39,30.90
2018,08,21,15,40,31.00
2018,08,21,15,41,31.00
2018,08,21,15,42,31.00
2018,08,21,15,43,31.00
2018,08,21,15,44,31.00
2018,08,21,15,45,31.00
2018,08,21,15,46,31.00
2018,08,21,15,47,31.00
2018,08,21,15,48,31.00
2018,08,21,15,49,31.00
2018,08,21,15,50,31.00
2018,08,21,15,51,31.00
2018,08,21,15,52,30.90
2018,08,21,15,53,30.90
2018,08,21,15,54,30.90
2018,08,21,15,55,30.90
2018,08,21,15,56,30.90
2018,08,21,15,57,30.90
2018,08,21,15,58,30.90
2018,08,21,15,59,30.80
2018,08,21,16,00,30.80
2018,08,21,16,01,30.80
2018,08,21,16,02,30.80
2018,08,21,16,03,30.80
2018,08,21,16,04,30.80
2018,08,21,16,05,30.70
2018,08,21,16,06,30.70
2018,08,21,16,07,30.60
2018,08,21,16,08,30.60
2018,08,21,16,09,30.40
2018,08,21,16,10,30.40
2018,08,21,16,11,30.30
2018,08,21,16,12,30.20
2018,08,21,16,13,30.20
2018,08,21,16,14,30.00
2018,08,21,16,15,29.90
2018,08,21,16,16,29.80
2018,08,21,16,17,29.80
2018,08,21,16,18,29.80
2018,08,21,16,19,29.70
2018,08,21,16,20,29.70
2018,08,21,16,21,29.70
2018,08,21,16,22,29.70
2018,08,21,16,23,29.70
2018,08,21,16,24,29.70
2018,08,21,16,25,29.70
2018,08,21,16,26,29.70
2018,08,21,16,27,29.70
2018,08,21,16,28,29.70
2018,08,21,16,29,29.70
2018,08,21,16,30,29.60
2018,08,21,16,31,29.60
2018,08,21,16,32,29.60
2018,08,21,16,33,29.60
2018,08,21,16,34,29.60
2018,08,21,16,35,29.60
2018,08,21,16,36,29.50
2018,08,21,16,37,29.50
2018,08,21,16,38,29.50
2018,08,21,16,39,29.50
2018,08,21,16,40,29.50
2018,08,21,16,41,29.50
2018,08,21,16,42,29.50
2018,08,21,16,43,29.50
2018,08,21,16,44,29.50
2018,08,21,16,45,29.50
2018,08,21,16,46,29.50
2018,08,21,16,47,29.50
2018,08,21,16,48,29.50
2018,08,21,16,49,29.50
2018,08,21,16,50,29.50
2018,08,21,16,51,29.50
2018,08,21,16,52,29.50
2018,08,21,16,53,29.50
2018,08,21,16,54,29.50
2018,08,21,16,55,29.50
2018,08,21,16,56,29.50
2018,08,21,16,57,29.50
2018,08,21,16,58,29.50
2018,08,21,16,59,29.50
2018,08,21,17,00,29.50
2018,08,21,17,01,29.50
2018,08,21,17,02,29.50
2018,08,21,17,03,29.50
2018,08,21,17,04,29.50
2018,08,21,17,05,29.50
2018,08,21,17,06,29.50
2018,08,21,17,07,29.40
2018,08,21,17,08,29.40
2018,08,21,17,09,29.40
2018,08,21,17,10,29.40
2018,08,21,17,11,29.40
2018,08,21,17,12,29.40
2018,08,21,17,13,29.40
2018,08,21,17,14,29.40
2018,08,21,17,15,29.40
2018,08,21,17,16,29.40
2018,08,21,17,17,29.40
2018,08,21,17,18,29.40
2018,08,21,17,19,29.30
2018,08,21,17,20,29.30
2018,08,21,17,21,29.30
2018,08,21,17,22,29.30
2018,08,21,17,23,29.30
2018,08,21,17,24,29.30
2018,08,21,17,25,29.20
2018,08,21,17,26,29.20
2018,08,21,17,27,29.20
2018,08,21,17,28,29.20
2018,08,21,17,29,29.20
2018,08,21,17,30,29.10
2018,08,21,17,31,29.10
2018,08,21,17,32,29.10
2018,08,21,17,33,29.10
2018,08,21,17,34,29.10
2018,08,21,17,35,29.10
2018,08,21,17,36,29.00
2018,08,21,17,37,28.90
2018,08,21,17,38,28.90
2018,08,21,17,39,28.90
2018,08,21,17,40,28.90
2018,08,21,17,41,28.90
2018,08,21,17,42,28.90
2018,08,21,17,43,28.90
2018,08,21,17,44,28.90
2018,08,21,17,45,28.90
2018,08,21,17,46,28.90
2018,08,21,17,47,28.90
2018,08,21,17,48,28.90
2018,08,21,17,49,28.90
2018,08,21,17,50,28.90
2018,08,21,17,51,28.90
2018,08,21,17,52,28.90
2018,08,21,17,53,28.90
2018,08,21,17,54,28.90
2018,08,21,17,55,28.90
2018,08,21,17,56,28.90
2018,08,21,17,57,28.90
2018,08,21,17,58,28.90
2018,08,21,17,59,28.90
2018,08,21,18,00,28.90
2018,08,21,18,01,28.80
2018,08,21,18,02,28.80
2018,08,21,18,03,28.80
2018,08,21,18,04,28.70
2018,08,21,18,05,28.70
2018,08,21,18,06,28.60
2018,08,21,18,07,28.50
2018,08,21,18,08,28.40
2018,08,21,18,09,28.40
2018,08,21,18,10,28.30
2018,08,21,18,11,28.20
2018,08,21,18,12,28.20
2018,08,21,18,13,28.20
2018,08,21,18,14,28.10
2018,08,21,18,15,28.10
2018,08,21,18,16,28.00
2018,08,21,18,17,28.00
2018,08,21,18,18,27.90
2018,08,21,18,19,27.80
2018,08,21,18,20,27.80
2018,08,21,18,21,27.80
2018,08,21,18,22,27.70
2018,08,21,18,23,27.70
2018,08,21,18,24,27.60
2018,08,21,18,25,27.50
2018,08,21,18,26,27.40
2018,08,21,18,27,27.40
2018,08,21,18,28,27.30
2018,08,21,18,29,27.30
2018,08,21,18,30,27.30
2018,08,21,18,31,27.30
2018,08,21,18,32,27.30
2018,08,21,18,33,27.30
2018,08,21,18,34,27.20
2018,08,21,18,35,27.20
2018,08,21,18,36,27.10
2018,08,21,18,37,27.10
2018,08,21,18,38,27.10
2018,08,21,18,39,27.10
2018,08,21,18,40,27.00
2018,08,21,18,41,26.90
2018,08,21,18,42,26.90
2018,08,21,18,43,26.90
2018,08,21,18,44,26.80
2018,08,21,18,45,26.80
2018,08,21,18,46,26.70
2018,08,21,18,47,26.70
2018,08,21,18,48,26.60
2018,08,21,18,49,26.60
2018,08,21,18,50,26.60
2018,08,21,18,51,26.50
2018,08,21,18,52,26.40
2018,08,21,18,53,26.40
2018,08,21,18,54,26.30
2018,08,21,18,55,26.30
2018,08,21,18,56,26.20
2018,08,21,18,57,26.20
2018,08,21,18,58,26.10
2018,08,21,18,59,26.10
2018,08,21,19,00,26.00
2018,08,21,19,01,26.00
2018,08,21,19,02,25.90
2018,08,21,19,03,25.90
2018,08,21,19,04,25.90
2018,08,21,19,05,25.80
2018,08,21,19,06,25.80
2018,08,21,19,07,25.70
2018,08,21,19,08,25.60
2018,08,21,19,09,25.60
2018,08,21,19,10,25.60
2018,08,21,19,11,25.50
2018,08,21,19,12,25.50
2018,08,21,19,13,25.40
2018,08,21,19,14,25.40
2018,08,21,19,15,25.30
2018,08,21,19,16,25.30
2018,08,21,19,17,25.20
2018,08,21,19,18,25.20
2018,08,21,19,19,25.10
2018,08,21,19,20,25.10
2018,08,21,19,21,25.00
2018,08,21,19,22,25.00
2018,08,21,19,23,24.90
2018,08,21,19,24,24.90
2018,08,21,19,25,24.90
2018,08,21,19,26,24.80
2018,08,21,19,27,24.80
2018,08,21,19,28,24.70
2018,08,21,19,29,24.70
2018,08,21,19,30,24.60
2018,08,21,19,31,24.60
2018,08,21,19,32,24.50
2018,08,21,19,33,24.50
2018,08,21,19,34,24.50
2018,08,21,19,35,24.40
2018,08,21,19,36,24.40
2018,08,21,19,37,24.40
2018,08,21,19,38,24.30
2018,08,21,19,39,24.30
2018,08,21,19,40,24.30
2018,08,21,19,41,24.20
2018,08,21,19,42,24.20
2018,08,21,19,43,24.20
2018,08,21,19,44,24.10
2018,08,21,19,45,24.10
2018,08,21,19,46,24.10
2018,08,21,19,47,24.10
2018,08,21,19,48,24.10
2018,08,21,19,49,23.90
2018,08,21,19,50,23.90
2018,08,21,19,51,23.90
2018,08,21,19,52,23.80
2018,08,21,19,53,23.80
2018,08,21,19,54,23.70
2018,08,21,19,55,23.70
2018,08,21,19,56,23.70
2018,08,21,19,57,23.60
2018,08,21,19,58,23.60
2018,08,21,19,59,23.50
2018,08,21,20,00,23.40
2018,08,21,20,01,23.40
2018,08,21,20,02,23.30
2018,08,21,20,03,23.30
2018,08,21,20,04,23.30
2018,08,21,20,05,23.30
2018,08,21,20,06,23.20
2018,08,21,20,07,23.20
2018,08,21,20,08,23.10
2018,08,21,20,09,23.10
2018,08,21,20,10,23.10
2018,08,21,20,11,23.00
2018,08,21,20,12,22.90
2018,08,21,20,13,22.90
2018,08,21,20,14,22.90
2018,08,21,20,15,22.90
2018,08,21,20,16,22.80
2018,08,21,20,17,22.80
2018,08,21,20,18,22.70
2018,08,21,20,19,22.70
2018,08,21,20,20,22.60
2018,08,21,20,21,22.60
2018,08,21,20,22,22.60
2018,08,21,20,23,22.50
2018,08,21,20,24,22.40
2018,08,21,20,25,22.40
2018,08,21,20,26,22.40
2018,08,21,20,27,22.30
2018,08,21,20,28,22.30
2018,08,21,20,29,22.20
2018,08,21,20,30,22.20
2018,08,21,20,31,22.10
2018,08,21,20,32,22.10
2018,08,21,20,33,22.00
2018,08,21,20,34,22.00
2018,08,21,20,35,21.90
2018,08,21,20,36,21.80
2018,08,21,20,37,21.80
2018,08,21,20,38,21.70
2018,08,21,20,39,21.70
2018,08,21,20,40,21.60
2018,08,21,20,41,21.60
2018,08,21,20,42,21.50
2018,08,21,20,43,21.40
2018,08,21,20,44,21.30
2018,08,21,20,45,21.30
2018,08,21,20,46,21.30
2018,08,21,20,47,21.20
2018,08,21,20,48,21.20
2018,08,21,20,49,21.10
2018,08,21,20,50,21.10
2018,08,21,20,51,21.10
2018,08,21,20,52,21.00
2018,08,21,20,53,21.00
2018,08,21,20,54,21.00
2018,08,21,20,55,21.00
2018,08,21,20,56,21.00
2018,08,21,20,57,21.00
2018,08,21,20,58,20.90
2018,08,21,20,59,20.90
2018,08,21,21,00,20.90
2018,08,21,21,01,20.90
2018,08,21,21,02,20.90
2018,08,21,21,03,20.80
2018,08,21,21,04,20.80
2018,08,21,21,05,20.80
2018,08,21,21,06,20.70
2018,08,21,21,07,20.70
2018,08,21,21,08,20.70
2018,08,21,21,09,20.60
2018,08,21,21,10,20.60
2018,08,21,21,11,20.60
2018,08,21,21,12,20.60
2018,08,21,21,13,20.50
2018,08,21,21,14,20.50
2018,08,21,21,15,20.40
2018,08,21,21,16,20.40
2018,08,21,21,17,20.30
2018,08,21,21,18,20.30
2018,08,21,21,19,20.30
2018,08,21,21,20,20.20
2018,08,21,21,21,20.20
2018,08,21,21,22,20.20
2018,08,21,21,23,20.20
2018,08,21,21,24,20.20
2018,08,21,21,25,20.20
2018,08,21,21,26,20.10
2018,08,21,21,27,20.10
2018,08,21,21,28,20.10
2018,08,21,21,29,20.10
2018,08,21,21,30,20.10
2018,08,21,21,31,20.00
2018,08,21,21,32,19.90
2018,08,21,21,33,19.90
2018,08,21,21,34,19.90
2018,08,21,21,35,19.90
2018,08,21,21,36,19.90
2018,08,21,21,37,19.90
2018,08,21,21,38,19.80
2018,08,21,21,39,19.80
2018,08,21,21,40,19.80
2018,08,21,21,41,19.80
2018,08,21,21,42,19.80
2018,08,21,21,43,19.70
2018,08,21,21,44,19.70
2018,08,21,21,45,19.70
2018,08,21,21,46,19.60
2018,08,21,21,47,19.60
2018,08,21,21,48,19.60
2018,08,21,21,49,19.60
2018,08,21,21,50,19.60
2018,08,21,21,51,19.60
2018,08,21,21,52,19.60
2018,08,21,21,53,19.60
2018,08,21,21,54,19.60
2018,08,21,21,55,19.60
2018,08,21,21,56,19.60
2018,08,21,21,57,19.60
2018,08,21,21,58,19.60
2018,08,21,21,59,19.60
